Location: Santiago
(33.4378°S, 70.6505°W)
Time: 07:26:31
(UTC+00:00)

ISS - Pass Details

Date: 15 June 2024
Orbit: 410 x 424 km, 51.6° (Epoch: 13 July)

Event Time Altitude Azimuth Distance (km) Brightness Sun altitude
Rises 22:35:16 0° 312° (NW) 2,376 1.5 -11.0°
Reaches altitude 10° 22:37:22 10° 310° (NW) 1,514 0.3 -11.4°
Maximum altitude 22:40:45 77° 225° (SW) 441 -3.7 -12.1°
Enters shadow 22:43:09 18° 138° (SE) 1,110 -2.1 -12.6°
